(251784) = 1999 RN185 = 2011 CD119

Discovered at Socorro on 1999-09-09 by LINEAR.

Orbit

Orbit type: Main Belt

Note: WebGL enabled browser required.

epoch2023-02-25.0
epoch JD2460000.5
perihelion date2021-03-28.66936
perihelion JD2459302.16936
argument of perihelion (°)354.24009
ascending node (°)341.26348
inclination (°)6.31939
eccentricity0.1427286
perihelion distance (AU)2.0161301
Tisserand w.r.t. Jupiter3.5
ΔV w.r.t. Earth (km/sec)9.0
semimajor axis (AU)2.3517992
mean anomaly (°)190.83788
mean daily motion (°/day)0.27327730
aphelion distance (AU)2.687
period (years)3.61
P-vector [x]0.91018297
P-vector [y]-0.37549765
P-vector [z]-0.17483841
Q-vector [x]0.41269464
Q-vector [y]0.78608152
Q-vector [z]0.46017276
absolute magnitude17.13
phase slope0.15
uncertainty0
referenceMPEC 2023-F215
observations used441
oppositions15
arc length (days)8606
first opposition used1999
last opposition used2023
residual rms (arc-secs)0.72
perturbers coarse indicatorM-v
perturbers precise indicator003Ek
first observation date used1999-09-04.0
last observation date used2023-03-28.0
computer nameMPCLINUX
JD of orbit computation2455988.798148
perihelion JD uncertainty (days)1.1382E-04
argument of perihelion uncertainty (°)5.3702E-05
ascending node uncertainty (°)4.7296E-05
inclination uncertainty (°)9.5421E-06
eccentricity uncertainty 1.3060E-07
perihelion distance uncertainty (AU)2.9832E-07
Minimum Orbit Intersection Distances (in AU)
for orbit epoch: 2460000.5, reference: E2023-FE4
Mercury1.61105
Venus1.28948
Earth1.00508
Mars0.63544
Jupiter2.65832
Saturn6.52241
Uranus15.7591
Neptune27.6467

Observations

460 total observations over interval: 1999 09 04.34744 – 2023 03 28.235670
These data are available for download (format description).

Date (UT) J2000 RA J2000 Dec Magn Location Ref
1999 09 04.34744 23 16 22.53 -03 51 47.9 18.9 V 691 – Steward Observatory, Kitt Peak-Spacewatch MPS 13653
1999 09 04.36904 23 16 21.19 -03 51 49.7 19.0 V 691 – Steward Observatory, Kitt Peak-Spacewatch MPS 13653
1999 09 04.39026 23 16 19.87 -03 51 50.7 19.0 V 691 – Steward Observatory, Kitt Peak-Spacewatch MPS 13653
1999 09 07.34339 23 13 22.65 -03 54 59.6 18.6   704 – Lincoln Laboratory ETS, New Mexico MPS 13653
1999 09 07.35520 23 13 21.91 -03 55 01.2 19.0   704 – Lincoln Laboratory ETS, New Mexico MPS 13653
1999 09 07.36703 23 13 21.19 -03 55 00.9 19.2   704 – Lincoln Laboratory ETS, New Mexico MPS 13653
1999 09 07.37900 23 13 20.41 -03 55 02.0 18.8   704 – Lincoln Laboratory ETS, New Mexico MPS 13653
1999 09 07.39058 23 13 19.67 -03 55 01.6 18.4   704 – Lincoln Laboratory ETS, New Mexico MPS 13653
1999 09 09.42106 23 11 16.60 -03 57 19.7 19.4   704 – Lincoln Laboratory ETS, New Mexico MPS 6404
1999 09 09.43474 23 11 15.63 -03 57 21.8 19.5   704 – Lincoln Laboratory ETS, New Mexico MPS 6404
1999 09 09.44837 23 11 14.76 -03 57 23.6 19.4   704 – Lincoln Laboratory ETS, New Mexico MPS 6404
1999 09 11.25903 23 09 25.58 -03 59 30.2 19.3   704 – Lincoln Laboratory ETS, New Mexico MPS 6404
1999 09 11.25918 23 09 25.65 -03 59 29.7 19.5   704 – Lincoln Laboratory ETS, New Mexico MPS 6404
1999 09 11.27414 23 09 24.73 -03 59 31.8 19.5   704 – Lincoln Laboratory ETS, New Mexico MPS 6404
1999 09 11.27422 23 09 24.74 -03 59 32.1 19.5   704 – Lincoln Laboratory ETS, New Mexico MPS 6404
1999 09 11.27429 23 09 24.68 -03 59 32.2 19.8   704 – Lincoln Laboratory ETS, New Mexico MPS 6404
1999 09 11.28935 23 09 23.77 -03 59 33.6 19.8   704 – Lincoln Laboratory ETS, New Mexico MPS 6404
1999 09 11.28942 23 09 23.69 -03 59 33.3 19.8   704 – Lincoln Laboratory ETS, New Mexico MPS 6404
1999 09 11.28950 23 09 23.71 -03 59 32.6 20.0   704 – Lincoln Laboratory ETS, New Mexico MPS 6404
1999 09 11.30376 23 09 22.87 -03 59 34.0 19.7   704 – Lincoln Laboratory ETS, New Mexico MPS 6404
1999 09 11.30384 23 09 22.86 -03 59 34.4 19.8   704 – Lincoln Laboratory ETS, New Mexico MPS 6404
1999 09 11.30391 23 09 22.83 -03 59 33.9 19.9   704 – Lincoln Laboratory ETS, New Mexico MPS 6404
1999 09 11.31826 23 09 21.86 -03 59 34.9 19.8   704 – Lincoln Laboratory ETS, New Mexico MPS 6404
1999 09 11.31834 23 09 21.87 -03 59 34.4 19.8   704 – Lincoln Laboratory ETS, New Mexico MPS 6404
1999 09 14.26800 23 06 25.14 -04 03 03.3 19.1 R 703 – Catalina Sky Survey MPS 15188
1999 09 14.28051 23 06 24.32 -04 03 05.2 18.8 R 703 – Catalina Sky Survey MPS 15188
1999 09 14.29285 23 06 23.59 -04 03 04.5 19.0 R 703 – Catalina Sky Survey MPS 15188
1999 09 14.30524 23 06 22.70 -04 03 06.3 19.1 R 703 – Catalina Sky Survey MPS 15188
1999 10 06.17307 22 49 08.51 -04 14 50.2 19.2   704 – Lincoln Laboratory ETS, New Mexico MPS 15188
1999 10 06.18666 22 49 08.05 -04 14 50.1 19.4   704 – Lincoln Laboratory ETS, New Mexico MPS 15188
1999 10 06.19989 22 49 07.59 -04 14 49.8 19.3   704 – Lincoln Laboratory ETS, New Mexico MPS 15188
1999 10 06.21315 22 49 07.19 -04 14 48.8 19.2   704 – Lincoln Laboratory ETS, New Mexico MPS 15188
1999 10 06.22654 22 49 06.68 -04 14 48.8 19.1   704 – Lincoln Laboratory ETS, New Mexico MPS 15188
2003 11 26.24882 03 35 08.57 +30 31 20.2 19.8   704 – Lincoln Laboratory ETS, New Mexico MPS 129936
2003 11 26.26156 03 35 07.61 +30 31 18.0 20.0   704 – Lincoln Laboratory ETS, New Mexico MPS 129936
2003 11 26.28696 03 35 05.76 +30 31 12.4 20.1   704 – Lincoln Laboratory ETS, New Mexico MPS 129936
2003 12 29.08841 03 11 36.29 +27 53 11.0 21.2 V 691 – Steward Observatory, Kitt Peak-Spacewatch MPS 129936
2003 12 29.11675 03 11 35.96 +27 53 03.7 21.1 V 691 – Steward Observatory, Kitt Peak-Spacewatch MPS 129936
2003 12 29.14423 03 11 35.63 +27 52 57.2 21.2 V 691 – Steward Observatory, Kitt Peak-Spacewatch MPS 129936
2005 03 04.18394 11 20 46.62 +03 03 32.1 20.7 V 691 – Steward Observatory, Kitt Peak-Spacewatch MPS 127723
2005 03 04.20953 11 20 45.07 +03 03 38.1 20.6 V 691 – Steward Observatory, Kitt Peak-Spacewatch MPS 127723
2005 03 04.23558 11 20 43.48 +03 03 43.9 20.4 V 691 – Steward Observatory, Kitt Peak-Spacewatch MPS 127723
2005 03 08.33517 11 16 35.25 +03 20 08.7 19.4 R G96 – Mt. Lemmon Survey MPS 127723
2005 03 08.34176 11 16 34.84 +03 20 10.3 19.6 R G96 – Mt. Lemmon Survey MPS 127723
2005 03 08.34833 11 16 34.43 +03 20 12.1 19.3 R G96 – Mt. Lemmon Survey MPS 127723
2005 03 08.35490 11 16 34.02 +03 20 13.7 19.4 R G96 – Mt. Lemmon Survey MPS 127723
2005 03 08.41115 11 16 30.48 +03 20 27.2 19.3 R G96 – Mt. Lemmon Survey MPS 129936
2005 03 08.41294 11 16 30.36 +03 20 27.7 19.7 R G96 – Mt. Lemmon Survey MPS 129936
2005 03 08.41475 11 16 30.26 +03 20 28.2 19.6 R G96 – Mt. Lemmon Survey MPS 129936
2005 03 08.41656 11 16 30.14 +03 20 28.6 19.7 R G96 – Mt. Lemmon Survey MPS 129936
2005 04 12.16399 10 47 39.95 +05 11 55.6 20.7 R G96 – Mt. Lemmon Survey MPS 131497
2005 04 12.17002 10 47 39.75 +05 11 56.2 20.4 R G96 – Mt. Lemmon Survey MPS 131497
2005 04 12.17603 10 47 39.58 +05 11 57.1 20.2 R G96 – Mt. Lemmon Survey MPS 131497
2005 04 12.18204 10 47 39.39 +05 11 57.4 20.6 R G96 – Mt. Lemmon Survey MPS 131497
2006 08 12.17809 20 07 44.33 -26 56 17.6 19.6 R 644 – Palomar Mountain/NEAT MPS 175670
2006 08 12.19935 20 07 43.16 -26 56 14.9 19.0 R 644 – Palomar Mountain/NEAT MPS 175670
2006 08 12.21992 20 07 42.02 -26 56 11.7 19.6 R 644 – Palomar Mountain/NEAT MPS 175670
2006 10 20.10933 20 27 26.46 -20 13 48.1 20.5 V G96 – Mt. Lemmon Survey MPS 182687
2006 10 20.11488 20 27 26.89 -20 13 46.1 21.2 V G96 – Mt. Lemmon Survey MPS 182687
2006 10 20.12065 20 27 27.28 -20 13 43.1 21.1 V G96 – Mt. Lemmon Survey MPS 182687
2006 10 20.13397 20 27 28.33 -20 13 37.3 20.7 V G96 – Mt. Lemmon Survey MPS 182687
2007 12 31.32589 07 40 13.69 +29 51 56.4 20.6 V G96 – Mt. Lemmon Survey MPS 232535
2007 12 31.33435 07 40 13.08 +29 51 57.5 20.5 V G96 – Mt. Lemmon Survey MPS 232535
2007 12 31.35160 07 40 11.82 +29 51 59.7 20.2 V G96 – Mt. Lemmon Survey MPS 232535
2009 04 24.24204 13 30 48.34 -18 01 49.9 20.2 V G96 – Mt. Lemmon Survey MPS 284208
2009 04 24.24889 13 30 47.91 -18 01 48.4 20.2 V G96 – Mt. Lemmon Survey MPS 284208
2009 04 24.25568 13 30 47.44 -18 01 46.5 20.2 V G96 – Mt. Lemmon Survey MPS 284208
2009 04 24.26254 13 30 47.01 -18 01 44.7 19.9 V G96 – Mt. Lemmon Survey MPS 284208
2010 09 30.35843 01 34 37.12 +17 27 42.4 18.8 R G92 – Jarnac Observatory, Vail MPS 349350
2010 09 30.36313 01 34 36.76 +17 27 42.2 19.1 V 703 – Catalina Sky Survey MPS 349350
2010 09 30.36994 01 34 36.44 +17 27 42.2 19.2 V 703 – Catalina Sky Survey MPS 349350
2010 09 30.37277 01 34 36.24 +17 27 42.4 18.8 R G92 – Jarnac Observatory, Vail MPS 349350
2010 09 30.37682 01 34 36.08 +17 27 41.6 19.2 V 703 – Catalina Sky Survey MPS 349350
2010 09 30.38374 01 34 35.58 +17 27 42.9 19.0 V 703 – Catalina Sky Survey MPS 349350
2010 09 30.38700 01 34 35.53 +17 27 43.1 18.7 R G92 – Jarnac Observatory, Vail MPS 349350
2010 10 02.36210 01 32 44.90 +17 26 55.7 19.6   704 – Lincoln Laboratory ETS, New Mexico MPS 349350
2010 10 02.37536 01 32 44.12 +17 26 55.8 19.8   704 – Lincoln Laboratory ETS, New Mexico MPS 349350
2010 10 02.38856 01 32 43.23 +17 26 55.4 19.7   704 – Lincoln Laboratory ETS, New Mexico MPS 349350
2010 10 02.40186 01 32 42.51 +17 26 54.8 20.0   704 – Lincoln Laboratory ETS, New Mexico MPS 349350
2010 10 02.41506 01 32 41.76 +17 26 52.1 20.2   704 – Lincoln Laboratory ETS, New Mexico MPS 349350
2010 10 05.87331 01 29 18.43 +17 23 29.4 19.0 V J75 – OAM Observatory, La Sagra MPS 349350
2010 10 05.88528 01 29 17.68 +17 23 28.2 19.5 V J75 – OAM Observatory, La Sagra MPS 349350
2010 10 05.89722 01 29 16.92 +17 23 27.2 19.4 V J75 – OAM Observatory, La Sagra MPS 349350
2010 10 08.34379 01 26 46.28 +17 19 40.5 19.1 V 703 – Catalina Sky Survey MPS 349350
2010 10 08.35069 01 26 45.85 +17 19 40.3 19.4 V 703 – Catalina Sky Survey MPS 349350
2010 10 08.35767 01 26 45.34 +17 19 39.2 19.6 V 703 – Catalina Sky Survey MPS 349350
2010 10 08.36464 01 26 44.88 +17 19 38.3 19.4 V 703 – Catalina Sky Survey MPS 349350
2010 10 11.31986 01 23 39.30 +17 13 34.2 19.0 V G96 – Mt. Lemmon Survey MPS 351027
